User: anonymous   Login
Location: NJAA Observatory
(40.6819°N, 74.8979°W)
Time: 00:18:47
(UTC-04:00)
Language:

Landsat 5 - Orbit

View from above orbital plane
View from above orbital plane
View from above satellite
View from above satellite

Ground track
Ground track

The orbit data is extracted from the following two-line orbital elements,

1 14780U 84021A   16243.80085807  .00000238  00000-0  28185-4 0  9998
2 14780  98.0274 344.4760 0092429  46.0549 314.8247 14.91222599732593
Epoch (UTC): 30 August 2016 19:13:14
Eccentricity: 0.0092429
inclination: 98.0274°
perigee height: 529 km
apogee height: 658 km
right ascension of ascending node: 344.4760°
argument of perigee: 46.0549°
revolutions per day: 14.91222599
mean anomaly at epoch: 314.8247°
orbit number at epoch: 73259

The dashed part of the orbit path shows where the satellite is in the earth's shadow,  

DLR